Location: Unspecified
(0.0000°N, 0.0000°E)
Time: 17:47:59
(UTC+00:00)

HTV-X1 - Pass Details

Date: 11 May 2026
Orbit: 372 x 382 km, 51.6° (Epoch: 21 May)

Event Time Altitude Azimuth Distance (km) Brightness Sun altitude
Rises 04:19:30 0° 354° (N) 2,228 ? -23.0°
Reaches altitude 10° 04:22:17 10° 21° (NNE) 1,384 ? -22.3°
Maximum altitude 04:23:57 14° 54° (NE) 1,190 ? -21.9°
Drops below altitude 10° 04:25:37 10° 87° (E) 1,391 ? -21.5°
Sets 04:28:25 0° 115° (ESE) 2,248 ? -20.9°
